User: anonymous   Login
Location: Unspecified
(0.0000°N, 0.0000°E)
Time: 17:54:49
(UTC+02:00)
Language:

ATLAS V CENTAUR R/B - Orbit

View from above orbital plane
View from above orbital plane
View from above satellite
View from above satellite

Ground track
Ground track

The orbit data is extracted from the following two-line orbital elements,

1 27500U 02038B   16118.10633679  .00008112  00000-0  11114-2 0  9991
2 27500  18.0262 283.2854 6829559 259.7265  22.9281  2.88295307113774
Epoch (UTC): 27 April 2016 02:33:07
Eccentricity: 0.6829559
inclination: 18.0262°
perigee height: 233 km
apogee height: 28717 km
right ascension of ascending node: 283.2854°
argument of perigee: 259.7265°
revolutions per day: 2.88295307
mean anomaly at epoch: 22.9281°
orbit number at epoch: 11377

The dashed part of the orbit path shows where the satellite is in the earth's shadow,  

DLR